Volver al catálogo

SCOUT A DEB

ActivoPO
NORAD 2889·DEBRIS·🇺🇸 United States

Lanzado Jan 28, 1966 desde Vandenberg Space Force Base

Loading…

Próximos Pases (próximas 24 horas)

TLE

ActualizadoSource: Space-Track

Época: Sep 14, 2026, 04:08 UTC

1 02889U 66005E   26257.17266638  .00000043  00000-0  83431-4 0  9995
2 02889  89.5390 154.1033 0164822 275.1397 240.3462 13.18020047848116

Sigue SCOUT A DEB en tiempo real con AllMySat

Download on the App Store